Theta_e
331 334 327 327 330 331 333 335 336 336 337 338 340 340 341 343 344 345 345 345 346 346 348 350 350 350 349 349 349 349 350 350 351 350 350 350 350 350 350 351 352 353 354 353 353 353 356 359 359 358 360 359 358 358 358 360 361 363 362 363 359 360 358
330 334 330 327 329 331 333 335 336 337 337 339 340 341 341 343 344 344 345 345 346 346 348 350 351 350 350 350 350 350 350 351 353 354 351 352 355 353 352 352 352 353 354 354 354 355 357 357 358 357 357 359 359 359 358 359 361 361 361 362 360 360 363
330 334 334 327 328 330 332 335 336 337 337 338 340 340 341 343 345 345 345 345 345 346 349 350 352 351 351 350 350 350 351 351 353 353 351 350 352 354 353 353 353 354 355 355 355 355 358 357 357 357 357 357 358 358 359 359 361 360 360 360 361 360 358
331 332 336 331 328 331 333 335 336 338 338 339 340 341 341 343 345 346 346 346 346 346 347 350 352 351 351 351 350 350 351 351 353 353 352 352 352 354 355 355 355 355 355 355 355 356 358 359 357 356 360 357 357 357 358 360 360 360 360 360 359 358 358
330 332 335 334 328 329 332 334 336 337 338 339 341 343 343 343 345 346 346 347 347 347 348 350 352 353 353 352 351 351 352 351 352 354 354 353 354 355 355 354 355 355 355 356 357 358 358 358 357 357 356 358 357 357 358 359 359 360 359 360 360 359 359
329 330 333 336 331 328 331 333 336 337 338 339 340 341 342 343 345 346 346 348 348 348 349 350 351 353 352 353 353 352 353 353 353 355 354 354 354 355 355 355 355 356 355 356 358 358 357 357 357 357 356 355 355 356 356 357 358 360 360 360 360 360 360
330 330 332 336 334 329 330 333 335 338 339 340 341 343 344 344 344 345 346 347 349 347 348 349 351 352 353 354 353 354 352 352 352 353 355 354 355 355 355 356 358 357 357 358 357 358 357 357 358 357 356 356 357 355 356 357 358 359 360 360 360 360 360
331 331 332 335 335 330 330 333 335 337 339 340 340 341 342 344 345 345 346 347 348 349 349 349 350 351 352 354 354 353 353 353 353 353 354 354 354 354 355 355 356 357 357 356 357 358 357 357 357 357 356 356 356 356 356 356 358 357 359 358 358 358 358
331 332 332 334 334 330 329 331 334 336 338 339 339 341 342 343 345 345 346 347 348 349 349 350 351 352 353 353 353 353 353 353 353 353 353 353 353 353 354 354 355 356 356 355 355 357 357 357 357 357 357 356 357 356 356 356 356 357 358 358 358 358 358
330 331 333 335 334 333 331 332 333 335 337 338 339 340 341 343 345 346 347 347 348 349 350 351 352 353 353 353 353 354 353 353 353 353 353 353 353 353 353 354 354 355 354 354 354 354 357 358 358 357 356 356 357 356 356 356 356 356 357 358 358 358 358
331 332 333 334 333 333 334 334 333 334 336 337 338 340 341 343 345 346 347 347 349 350 351 352 353 353 353 353 353 353 353 353 353 353 353 353 353 353 353 353 353 354 354 354 353 354 354 357 358 357 356 354 355 356 356 356 356 356 356 357 358 359 358
331 332 332 332 333 333 332 334 335 335 336 337 338 341 343 343 343 342 343 345 347 348 350 352 353 353 353 353 353 352 353 353 353 353 353 354 354 354 354 354 354 353 354 354 353 354 354 354 355 356 356 356 355 356 356 356 357 357 357 356 357 358 358
331 331 331 332 333 333 333 334 335 336 337 339 340 341 342 342 342 342 343 345 346 347 348 348 350 351 352 353 352 352 352 352 352 353 354 354 355 355 355 354 354 354 353 354 354 354 353 353 355 356 356 356 355 355 356 356 356 357 357 357 357 357 358
331 330 331 332 332 333 333 334 334 335 336 337 338 340 342 344 343 343 344 344 346 347 348 349 349 350 351 352 352 351 351 352 352 352 352 353 354 354 354 354 354 354 355 355 354 353 353 353 353 354 356 356 356 356 357 357 356 357 357 358 357 357 357
329 330 331 331 330 331 333 333 333 334 335 336 338 339 340 341 342 344 345 346 346 347 348 350 349 348 350 350 350 349 349 348 347 347 347 347 347 346 346 348 350 353 354 355 355 354 354 354 354 354 354 355 356 356 356 355 355 356 357 358 358 358 356
329 330 331 332 331 331 333 333 333 333 335 336 337 338 339 340 340 342 343 344 346 347 348 348 348 347 348 348 349 348 347 345 346 344 344 344 344 344 346 347 348 349 350 352 353 354 355 355 354 353 353 353 354 355 355 356 357 358 360 359 359 358 357
329 331 332 332 331 332 333 334 334 334 335 336 337 338 339 340 341 342 343 344 345 345 347 347 346 347 347 348 347 347 345 345 345 345 344 345 345 345 346 346 346 347 347 348 349 351 353 354 352 351 352 352 352 352 354 355 357 355 345 346 354 361 358
329 329 330 331 331 331 333 333 334 334 335 335 337 338 339 339 340 341 342 343 344 344 345 345 345 345 346 346 346 346 344 344 344 344 343 343 343 344 344 344 344 345 346 348 348 349 350 350 351 351 351 351 352 352 353 354 354 343 341 342 343 356 360
329 329 330 330 331 331 332 333 334 334 335 337 337 338 339 340 340 340 341 342 342 343 342 342 342 342 342 345 345 345 344 344 343 342 342 342 342 343 343 342 342 342 343 346 350 351 348 348 348 348 350 349 350 351 353 354 341 337 340 340 340 344 362
329 330 331 331 332 332 332 333 334 335 336 336 338 340 341 342 341 341 342 343 343 342 341 340 341 342 342 343 345 344 344 344 343 341 341 342 342 342 342 342 342 343 345 348 347 346 345 346 346 346 347 348 349 351 353 350 331 329 331 332 333 335 349
329 329 329 330 331 332 333 334 334 335 336 338 339 341 341 340 341 341 341 341 341 341 340 340 340 340 341 341 343 343 343 342 342 341 342 342 341 341 342 343 342 343 345 345 345 345 344 344 345 347 349 349 349 350 343 328 320 322 324 324 326 329 339
330 330 330 331 332 333 334 335 335 336 337 340 340 340 340 340 341 341 340 340 339 339 339 339 338 338 339 339 340 342 341 341 341 342 340 340 340 341 341 341 341 341 345 346 344 343 344 345 345 346 345 344 344 343 333 325 317 318 319 320 322 329 340
331 332 333 333 334 333 334 335 335 336 336 337 338 338 339 339 340 339 339 338 338 337 337 337 336 336 337 337 338 341 342 342 341 341 341 341 340 341 342 342 342 343 347 343 343 343 344 344 345 346 346 345 340 335 329 327 320 315 315 317 320 333 340
329 329 330 332 332 333 333 333 334 334 334 334 334 335 337 338 338 337 336 336 336 335 334 335 334 336 337 336 337 338 341 342 341 341 341 341 341 341 340 341 341 341 346 344 343 342 343 344 343 341 342 340 337 333 329 328 323 313 313 314 317 332 339
327 327 328 329 329 329 330 331 331 330 330 330 330 331 334 334 335 335 334 334 334 334 333 333 334 335 335 336 337 338 338 339 340 339 338 339 340 342 342 342 341 343 345 344 344 343 343 345 341 339 336 336 336 336 329 328 326 314 312 313 314 329 338
324 325 326 327 328 328 328 329 328 327 326 326 326 329 330 332 333 333 333 333 334 333 332 333 334 336 337 338 338 339 339 340 340 339 338 337 338 339 340 341 340 340 342 344 344 343 341 344 340 336 331 331 330 330 328 327 327 320 310 310 313 320 339
325 326 326 326 327 329 326 326 326 325 325 325 326 328 329 329 329 328 329 329 329 330 332 333 335 335 335 336 337 338 338 339 339 337 337 337 336 337 337 337 337 337 337 338 341 341 340 339 335 331 329 329 330 330 331 331 327 321 310 308 310 316 332
323 324 326 328 329 327 324 324 324 325 325 326 326 326 327 327 326 326 325 324 324 327 331 333 333 334 334 334 334 335 336 337 336 336 335 335 335 333 333 335 335 335 334 334 336 336 331 330 330 328 327 328 329 328 327 331 329 326 315 310 308 308 316
320 320 321 322 322 325 323 320 321 322 323 325 326 326 325 324 324 324 324 323 324 329 331 332 333 333 332 332 333 335 334 333 334 334 334 333 333 332 331 332 332 332 332 331 330 329 327 327 327 327 325 324 324 324 324 325 328 325 324 314 309 309 310
318 319 320 321 322 323 323 320 320 320 321 322 323 324 325 323 323 324 323 322 326 328 330 330 330 331 331 331 329 329 328 327 325 324 325 328 329 328 328 329 330 331 330 329 328 327 326 326 326 325 323 321 320 321 321 321 323 324 324 322 313 310 309
317 318 319 319 320 322 321 319 319 319 319 320 321 322 322 323 324 324 322 323 328 327 327 328 330 328 327 325 326 325 322 321 319 319 319 320 322 325 326 326 327 326 327 328 327 327 325 326 326 325 323 321 318 318 318 319 319 319 321 322 321 314 312
316 317 318 318 318 320 318 318 319 319 319 319 321 320 322 320 321 321 321 324 327 328 328 328 328 327 324 323 322 320 320 317 316 316 316 317 319 321 322 324 327 326 325 326 325 325 325 326 327 325 320 318 317 317 316 315 316 315 315 319 319 319 316
314 315 317 317 319 320 317 318 317 318 318 317 318 319 320 320 321 322 324 326 326 327 326 327 327 327 323 320 320 320 319 317 315 314 314 314 315 316 318 319 320 323 325 324 326 327 327 326 326 324 319 316 317 317 316 315 313 313 314 314 314 315 316
313 314 314 315 318 318 316 316 316 317 317 317 316 318 319 319 319 320 320 322 325 326 326 328 325 322 321 322 324 325 323 322 323 315 312 311 311 311 312 313 315 316 315 314 314 322 325 326 326 322 318 317 317 316 315 314 314 313 311 312 312 311 311
313 313 314 316 318 319 315 317 317 317 317 316 316 317 318 318 319 319 319 320 322 325 326 327 328 326 324 325 326 324 322 316 314 312 311 310 309 307 306 307 309 313 313 312 311 313 317 321 320 318 316 315 315 316 315 313 312 314 307 308 302 303 304
313 314 315 316 317 317 318 319 317 317 317 316 317 318 318 317 318 318 319 319 320 324 326 326 323 321 320 321 320 319 318 315 314 313 312 310 310 309 308 306 301 303 310 311 310 303 300 308 315 315 314 311 311 313 312 311 312 302 295 294 294 294 295
314 314 315 316 315 315 317 318 320 318 318 317 319 318 319 318 317 318 319 319 319 320 321 322 322 321 320 321 319 319 316 313 311 311 311 311 311 312 312 310 309 297 297 304 303 298 294 293 294 299 306 316 311 309 302 302 297 293 292 292 293 292 292
314 315 316 315 315 317 317 318 318 318 318 317 318 316 317 318 317 317 319 319 318 319 319 320 321 319 320 321 322 321 317 314 315 314 312 311 311 311 311 310 309 309 300 296 298 298 294 293 293 293 294 295 302 313 311 302 294 292 291 291 291 292 294
Wind_Speed
10 9 9 10 12 12 13 13 13 12 12 12 12 13 12 11 11 10 10 11 12 11 10 10 10 9 9 8 8 7 7 7 6 7 7 6 6 7 7 6 6 6 5 5 5 6 5 4 5 5 4 4 4 4 4 3 3 3 2 2 1 1 2
10 10 10 10 12 13 13 13 12 11 11 12 12 12 12 12 11 11 11 11 12 13 12 11 10 9 9 8 7 7 8 8 7 6 6 5 5 5 6 6 7 6 6 6 5 5 4 5 5 5 5 4 4 4 4 3 3 3 3 3 3 2 1
12 11 10 10 11 12 13 11 11 12 12 11 11 11 12 12 12 13 12 12 12 11 11 11 11 10 9 8 8 8 8 8 7 7 7 7 7 7 6 6 6 5 6 5 4 4 4 5 4 4 4 5 5 5 4 4 3 3 3 3 3 3 3
12 12 12 11 10 11 13 14 14 12 11 13 13 13 13 13 12 12 12 13 13 12 12 12 11 10 9 9 9 8 8 8 8 8 7 7 7 6 5 5 4 4 4 5 5 4 4 5 5 5 5 5 5 5 4 5 4 4 4 3 3 3 3
13 10 9 9 9 9 10 11 12 12 13 13 12 13 13 13 12 10 10 11 12 13 13 13 9 9 8 8 6 6 7 8 7 7 6 6 6 5 6 6 5 5 6 4 4 4 5 5 5 5 5 5 5 5 5 5 5 4 4 4 4 3 3
13 13 12 10 10 10 11 13 14 15 14 14 13 12 11 11 10 11 11 11 10 10 9 9 10 10 9 8 7 7 7 7 7 7 7 7 7 6 6 6 6 5 5 6 4 5 5 5 5 5 5 5 5 5 5 5 5 4 5 4 4 4 3
12 12 11 11 10 11 11 12 12 12 12 13 12 11 10 10 12 12 10 11 11 12 11 11 10 10 10 9 9 9 9 8 8 8 6 6 7 6 6 6 5 5 5 4 5 5 5 5 6 6 5 5 5 5 5 6 6 5 4 4 5 4 4
10 11 11 10 10 10 10 11 11 11 10 10 10 10 11 10 10 10 11 11 11 10 11 11 11 10 10 8 9 10 8 8 7 7 6 7 6 6 6 6 6 6 5 6 5 5 5 6 5 5 6 5 5 5 5 6 6 5 4 4 5 5 3
6 7 8 8 9 9 9 10 11 12 13 13 13 13 12 11 11 11 12 11 10 11 11 11 11 10 9 9 8 9 8 7 7 7 8 8 7 7 6 6 6 5 6 6 5 5 5 5 5 6 6 6 5 5 5 6 6 5 5 5 6 6 5
5 5 4 3 3 4 7 8 9 9 11 12 11 12 12 12 11 11 11 11 10 11 11 10 9 8 8 8 8 8 7 7 7 8 7 8 6 8 7 6 5 5 5 5 4 5 5 5 5 5 6 6 6 5 5 5 5 5 5 6 6 6 6
6 5 4 4 4 4 3 5 8 10 10 10 10 10 11 10 8 5 4 4 0 3 4 5 5 7 8 9 9 9 8 8 7 7 7 7 6 7 7 7 6 5 6 5 5 5 5 5 5 5 5 5 6 6 6 6 6 6 6 5 5 6 6
7 8 8 8 8 7 3 3 3 4 6 7 8 9 8 8 9 9 9 8 7 6 6 6 6 6 7 8 8 9 9 8 7 8 8 7 7 7 7 6 7 6 6 6 6 6 5 5 4 5 6 6 6 6 6 6 6 7 6 6 6 6 6
6 7 8 9 8 6 2 4 3 2 3 3 6 9 10 10 11 11 11 11 10 10 9 7 6 6 7 7 7 6 8 8 8 7 7 6 5 5 4 5 6 6 6 6 6 6 5 5 5 5 6 6 5 6 6 6 6 6 6 6 6 6 6
7 6 5 4 4 3 2 1 2 4 5 7 8 7 2 4 9 11 12 13 11 9 10 9 9 8 9 9 9 8 7 5 4 4 3 2 2 2 2 2 3 4 4 4 5 6 6 6 6 6 5 5 5 6 5 5 5 5 5 5 5 5 6
8 7 6 6 4 2 4 7 8 6 2 3 4 3 2 5 2 4 7 9 10 9 9 9 10 9 9 8 9 9 8 7 6 5 5 4 4 4 4 3 2 3 3 4 5 4 5 6 6 5 6 5 6 6 5 5 5 5 5 5 6 5 6
7 6 6 5 4 3 3 6 6 6 6 2 2 2 5 6 5 6 8 10 10 10 9 9 9 9 9 10 9 8 8 9 8 8 8 7 6 5 4 2 2 1 3 4 5 6 5 5 5 6 6 6 6 5 5 5 4 6 10 9 6 6 5
6 5 5 6 3 2 4 6 7 7 5 6 8 9 9 8 7 8 6 4 4 6 8 9 10 10 10 10 8 7 7 8 8 8 8 8 7 7 7 6 4 3 2 0 4 5 5 5 6 6 6 7 6 6 5 5 5 10 11 12 12 7 5
7 7 7 4 4 3 3 5 5 4 4 4 6 8 8 7 5 4 7 7 8 7 2 2 1 1 3 5 6 7 7 7 7 6 6 5 5 5 5 6 6 5 4 2 3 4 3 4 5 5 5 4 6 6 6 6 7 10 11 11 12 10 6
7 6 6 4 3 4 3 2 1 2 4 5 8 8 8 8 9 10 9 7 6 7 5 3 4 6 3 2 6 7 6 6 6 5 5 5 6 7 6 6 5 6 6 5 3 1 1 2 2 2 2 4 6 6 5 5 1 4 6 8 9 11 9
6 6 5 4 3 5 4 2 2 3 3 3 5 8 8 8 8 7 6 6 7 8 8 8 7 8 7 6 6 7 8 8 7 7 6 6 6 5 5 5 5 3 3 5 5 3 2 1 3 3 2 2 3 5 4 2 4 5 4 4 5 5 6
7 6 5 5 5 5 5 3 1 1 1 1 3 5 6 6 5 6 6 6 7 8 8 7 6 6 6 5 4 6 7 8 8 8 7 5 5 4 3 1 1 2 3 4 5 5 4 4 4 4 4 4 4 4 2 4 7 5 4 3 3 4 4
6 5 6 5 5 6 6 6 2 1 2 2 3 3 3 4 5 6 6 7 8 8 7 7 6 5 4 3 3 5 6 7 7 6 6 5 4 3 2 0 1 2 1 2 3 3 4 3 2 1 3 3 2 3 4 3 7 5 4 3 3 2 2
6 7 6 6 6 7 7 7 8 7 6 6 6 5 4 3 5 8 7 8 7 8 8 8 7 6 4 4 2 1 3 5 6 5 5 3 2 3 3 4 2 2 2 2 2 2 2 1 3 3 2 4 5 5 4 3 7 7 6 4 4 1 1
10 9 9 8 8 9 9 9 10 10 9 9 8 7 5 4 5 7 9 9 8 9 8 9 8 6 6 4 3 4 4 3 5 3 3 4 5 5 4 3 4 5 1 1 2 2 2 3 4 4 5 6 5 4 4 4 7 9 8 7 6 3 1
9 9 10 9 8 9 9 9 10 10 11 12 11 10 9 9 7 6 7 7 7 7 7 6 6 6 5 4 3 4 5 5 2 2 3 2 3 3 3 3 3 2 2 2 2 3 2 4 4 4 7 7 7 7 6 4 4 6 5 5 6 4 1
9 9 9 9 9 8 8 8 11 12 12 11 10 9 10 8 9 9 8 7 8 8 7 7 6 6 6 6 6 6 6 6 5 4 4 4 4 4 4 3 3 3 3 4 5 5 4 4 4 6 6 6 5 4 4 5 4 6 6 5 4 3 1
7 7 8 7 7 7 9 9 10 10 9 8 9 9 9 8 9 11 10 10 9 8 6 6 7 7 7 7 7 7 7 7 6 6 5 5 5 4 4 2 2 2 3 4 4 4 3 2 4 7 7 5 4 4 5 5 5 7 7 7 6 6 3
7 7 7 7 9 8 7 8 10 10 11 9 9 9 9 10 11 10 11 11 11 9 5 5 7 7 8 8 8 8 7 7 7 7 6 6 5 5 5 3 3 2 2 1 1 3 4 5 6 7 7 5 5 5 6 8 10 4 8 8 9 9 8
6 7 7 7 8 7 8 8 9 9 9 8 9 8 8 11 11 10 10 11 9 6 6 7 7 8 7 8 7 7 8 7 9 8 6 5 5 5 5 4 4 4 4 5 6 6 7 7 7 7 7 5 4 5 6 6 7 8 7 9 9 9 10
5 6 7 6 6 7 8 8 7 8 8 7 7 7 8 8 10 10 11 10 6 6 7 7 8 7 8 8 7 7 7 7 7 6 5 6 6 5 4 4 4 5 5 7 7 7 6 5 4 5 6 6 5 5 5 5 4 6 8 6 8 10 10
5 5 5 6 6 6 7 7 8 7 8 7 8 7 6 6 7 8 7 4 6 8 6 6 6 7 7 7 6 6 5 7 7 6 6 6 5 6 5 6 6 6 6 6 6 6 6 5 4 5 5 6 5 4 4 4 4 4 6 9 8 8 10
5 5 5 6 6 6 7 8 7 8 8 8 7 7 6 6 6 7 3 4 3 2 3 4 5 6 5 5 5 5 5 7 7 8 8 7 6 5 5 5 5 5 5 5 6 6 5 4 4 5 5 5 4 3 3 3 4 4 4 4 5 5 8
3 3 5 6 4 5 6 7 7 7 7 8 6 6 7 7 6 4 3 4 4 3 4 3 4 4 4 5 5 5 6 8 5 5 6 6 5 6 5 5 5 5 5 4 5 5 5 5 4 3 3 3 3 3 3 3 4 4 4 4 4 4 5
5 5 5 4 4 5 6 7 7 6 7 6 5 5 6 7 6 6 5 5 5 4 5 4 3 4 4 5 5 5 5 6 8 7 6 6 6 6 6 6 5 5 5 4 3 3 4 4 4 3 3 3 3 3 3 3 3 3 3 4 4 4 4
4 4 4 5 5 5 6 4 6 5 6 5 5 5 6 6 5 5 6 5 4 3 5 5 4 4 5 4 5 5 5 5 5 5 6 6 7 7 6 4 4 4 4 4 2 2 2 4 4 3 3 3 3 3 3 3 3 3 3 4 6 5 4
4 5 5 4 5 6 6 5 5 5 5 4 5 5 5 6 5 5 5 4 4 3 5 3 4 4 4 3 4 4 4 4 5 5 5 5 5 5 6 8 8 6 4 4 8 9 7 6 4 2 2 3 3 2 2 2 2 5 6 7 8 8 7
4 4 5 5 6 6 6 5 4 4 5 4 4 5 4 5 6 5 6 6 5 5 5 4 4 4 3 4 4 4 4 4 4 4 4 4 4 5 6 5 7 9 11 8 7 8 10 11 10 9 7 4 2 2 4 2 4 5 6 7 8 9 9
5 4 4 5 5 4 4 4 4 4 2 2 3 4 4 4 5 5 5 5 5 5 5 5 4 4 4 4 4 5 5 4 4 4 4 4 4 4 5 5 6 6 8 9 9 9 9 10 10 9 9 9 6 2 1 1 1 4 5 6 6 8 7
Wind_Direction
179 183 190 181 180 183 184 184 181 180 178 180 182 182 181 181 182 178 181 184 188 184 186 181 182 178 182 185 186 185 188 183 181 184 188 194 194 186 186 190 192 201 197 197 209 211 218 212 211 215 216 223 225 228 234 235 237 239 219 203 189 202 225
188 186 187 185 182 185 186 184 182 179 180 183 184 182 181 181 179 181 184 186 189 185 183 186 184 186 184 184 181 183 184 187 183 185 185 190 190 189 192 188 193 200 201 207 205 213 209 218 205 207 217 225 232 230 229 231 227 229 219 213 217 237 225
189 183 185 187 186 184 184 182 184 183 183 184 184 182 184 183 182 184 182 184 189 188 183 185 188 186 183 178 179 187 187 181 181 181 180 186 190 185 188 188 197 196 200 197 200 204 207 212 211 212 210 220 233 232 229 228 227 217 220 209 211 234 251
190 185 185 189 190 186 183 183 184 185 187 186 185 185 185 187 187 186 184 183 185 185 185 187 185 185 181 177 183 183 186 186 185 183 183 181 186 177 171 188 191 196 193 200 198 199 206 202 209 213 218 217 231 234 226 229 221 207 216 203 213 220 235
198 186 178 180 188 186 185 185 185 185 189 191 191 190 188 187 185 184 185 186 186 188 190 184 181 182 181 178 179 181 184 182 182 183 181 179 176 168 177 189 189 195 206 193 188 196 206 209 210 209 220 219 230 227 228 226 225 210 211 207 222 217 232
193 195 190 180 183 187 187 188 187 186 187 188 190 191 192 187 183 187 186 183 188 190 187 185 183 180 181 182 181 181 178 185 184 181 179 174 173 175 187 191 188 197 198 204 188 197 198 206 215 211 213 217 225 229 227 225 226 212 208 204 219 223 229
193 193 189 190 187 185 189 188 189 190 190 191 190 190 186 184 186 189 184 187 186 186 186 187 188 182 187 181 188 180 182 178 178 181 175 172 177 183 189 188 189 194 204 183 203 191 197 202 211 215 217 220 219 223 223 222 224 211 204 204 221 223 225
192 194 192 188 186 183 186 187 188 188 188 189 185 186 189 190 183 183 187 190 188 189 190 189 190 188 185 186 186 188 183 182 181 176 173 176 177 187 185 189 192 191 185 199 209 194 205 206 209 208 212 218 223 223 222 220 221 214 197 206 218 234 223
188 196 193 187 181 181 184 187 187 187 187 188 188 190 190 186 185 186 189 188 190 189 195 193 192 189 183 185 186 190 184 179 180 177 177 180 181 190 192 192 195 187 194 205 208 204 208 213 211 209 202 214 222 218 220 217 216 208 199 207 212 222 228
151 153 151 131 155 181 185 189 187 184 188 189 190 191 190 189 189 187 187 190 188 193 194 193 193 188 182 182 187 185 180 184 181 181 184 188 187 189 191 190 190 190 205 214 213 213 214 209 212 205 203 210 214 208 217 213 216 209 206 209 209 215 222
54 69 87 117 151 186 190 180 185 191 189 188 189 191 190 189 179 151 108 60 35 237 194 188 188 187 185 183 185 185 185 186 181 184 189 194 192 196 190 190 189 184 201 206 219 222 219 216 206 206 205 212 209 206 207 212 208 210 214 217 214 217 220
92 90 77 57 31 2 316 271 246 207 186 178 175 167 153 133 125 124 126 124 116 120 136 160 168 180 182 188 186 188 189 188 187 189 189 193 195 198 197 195 194 191 192 197 209 218 219 222 208 205 212 216 216 210 212 210 208 207 212 215 216 219 224
125 121 126 133 145 154 188 268 254 233 216 202 174 166 158 149 152 148 152 163 162 158 158 157 153 154 161 172 192 191 194 189 190 189 190 191 197 197 201 206 208 203 203 192 203 209 217 218 216 213 213 215 211 216 213 212 210 211 214 217 217 217 219
34 36 37 28 14 360 335 263 23 39 30 21 13 2 1 155 161 164 169 179 179 166 166 169 163 164 169 172 180 185 186 165 136 142 140 154 172 204 224 232 226 223 216 201 204 212 215 217 214 215 211 217 213 218 213 209 210 210 214 219 221 219 219
48 47 33 32 28 43 48 54 66 65 97 150 143 122 11 345 327 188 184 187 179 172 182 172 164 163 168 174 181 177 160 144 132 118 109 102 98 93 82 56 354 265 233 214 217 217 215 217 216 210 210 218 219 220 213 210 215 210 208 212 219 218 222
52 50 50 49 49 41 54 85 119 189 198 126 113 150 165 164 185 227 209 196 186 181 179 160 176 169 169 178 183 173 160 148 144 147 142 144 144 150 158 132 92 24 294 256 230 223 218 218 212 211 215 214 218 221 213 219 216 218 215 213 213 213 217
49 51 53 63 81 222 193 172 182 191 190 177 176 183 194 195 192 180 199 219 229 209 188 177 180 179 178 181 168 160 155 153 157 158 164 168 167 172 171 159 148 131 118 235 273 262 248 228 219 216 216 220 211 208 215 223 224 222 218 216 219 218 205
67 59 63 84 245 243 179 208 199 161 157 189 221 207 195 185 185 187 202 195 193 195 150 105 121 219 177 137 143 153 156 157 155 157 156 147 144 149 170 172 164 162 152 157 214 244 248 254 253 253 249 242 228 218 218 218 230 229 225 221 221 221 209
70 77 84 118 234 260 279 260 113 135 159 186 217 220 216 196 186 191 186 178 147 102 97 87 114 114 96 171 154 151 142 141 143 146 137 130 144 162 177 183 180 191 198 187 144 105 24 250 192 239 249 265 270 250 232 234 172 232 242 245 237 228 222
73 70 66 62 14 346 332 304 234 168 165 189 218 230 218 204 205 200 188 162 139 132 141 147 146 144 160 183 184 155 148 149 151 149 145 147 154 160 164 173 189 175 104 87 86 94 129 192 137 152 156 181 222 257 261 185 29 17 1 356 331 307 274
79 82 73 59 36 16 358 319 299 126 106 150 193 197 194 178 164 152 148 142 132 134 130 129 134 141 148 187 173 143 147 153 153 151 166 167 150 158 185 174 73 106 137 131 137 146 168 188 173 172 168 167 175 181 102 51 21 18 15 8 348 318 293
68 65 66 61 64 58 50 42 38 54 30 41 91 114 146 152 150 144 135 120 124 123 121 119 117 107 109 127 186 166 153 143 140 147 158 164 143 128 87 38 323 278 225 141 135 156 174 187 188 67 48 37 47 83 82 61 28 14 13 9 4 336 276
42 58 72 70 70 73 63 61 52 45 50 37 26 28 53 58 125 133 128 126 126 122 123 119 112 110 89 45 349 13 96 113 120 126 136 127 119 136 141 141 105 16 316 102 142 160 199 115 61 57 48 55 56 82 85 55 19 12 8 7 360 304 255
34 28 30 32 41 43 42 43 50 45 43 42 34 27 30 67 114 115 112 112 110 109 112 113 112 105 93 80 45 30 41 89 109 125 154 162 178 184 187 140 126 146 209 170 172 202 231 93 88 68 66 69 71 83 100 76 38 25 9 2 353 310 280
47 47 47 39 32 40 44 47 53 51 46 38 29 15 23 36 27 68 84 92 98 98 97 94 97 101 111 111 91 76 65 42 46 85 74 82 105 135 148 144 149 136 169 184 199 231 209 135 120 100 73 78 84 87 90 86 55 38 17 19 6 356 320
50 46 46 44 43 43 44 40 50 47 43 39 29 17 22 37 50 46 52 66 84 84 77 84 84 80 83 77 68 65 67 73 66 55 62 62 54 55 56 65 80 90 160 204 205 213 214 169 138 96 76 86 100 102 107 92 65 32 15 23 20 354 270
70 67 64 54 48 48 45 42 51 50 46 42 34 29 20 29 52 54 46 39 42 47 52 77 86 81 73 70 63 55 57 58 64 64 57 65 75 78 66 57 117 163 181 188 187 194 187 122 83 91 95 94 86 85 74 80 75 47 29 26 30 23 62
61 57 55 61 60 55 50 42 46 48 44 33 41 43 41 42 45 43 46 41 27 16 26 62 78 83 83 81 82 78 72 76 76 69 63 54 59 72 75 67 66 41 340 336 210 143 91 94 99 96 97 80 63 53 51 57 62 53 42 32 28 23 15
58 57 55 58 53 47 59 52 42 43 41 36 32 29 40 56 51 43 37 44 28 10 30 46 60 71 73 77 75 80 79 66 64 62 60 64 57 56 64 57 67 64 48 50 52 61 67 70 86 97 91 80 55 43 42 35 47 41 38 34 33 29 31
55 59 59 59 70 70 68 65 50 43 34 34 36 35 28 42 55 49 43 26 11 30 43 51 61 66 65 66 68 68 67 71 68 66 63 69 73 61 51 50 56 50 51 59 63 60 61 59 73 86 88 81 65 50 45 35 27 24 28 31 29 25 22
71 76 69 62 58 68 72 75 68 55 41 32 31 32 39 45 65 64 56 1 6 19 25 42 55 68 66 60 70 78 81 74 69 67 62 57 71 75 55 49 45 58 40 53 64 68 69 64 61 68 76 79 78 66 55 43 40 22 14 16 26 24 21
75 80 79 77 68 64 78 78 71 69 60 36 31 40 39 36 49 58 19 347 16 66 60 46 58 63 74 74 62 58 70 76 67 60 50 45 36 44 39 45 56 63 50 52 65 78 85 78 79 75 79 82 79 66 58 35 28 22 10 5 5 14 11
80 80 96 94 96 95 84 85 79 71 66 56 21 39 36 43 38 45 41 57 45 59 75 83 87 84 71 70 68 58 58 65 60 59 49 35 36 41 32 27 31 53 58 48 62 76 88 92 96 98 104 108 93 81 55 36 26 7 356 359 355 3 357
99 76 47 62 61 80 82 81 85 76 67 55 27 43 47 40 29 12 18 25 34 60 68 67 75 86 90 87 87 79 71 74 68 68 63 42 40 34 28 26 26 46 45 37 29 62 68 69 64 62 83 85 83 72 56 33 19 1 347 349 352 343 346
82 90 82 63 46 53 67 80 82 81 75 49 17 40 49 43 30 19 23 13 8 52 75 72 76 82 75 68 71 74 73 63 64 69 73 69 59 53 41 17 7 39 65 48 32 340 55 70 67 59 42 55 42 39 51 33 23 13 343 337 344 341 335
81 80 70 67 70 66 64 55 66 64 56 29 18 42 51 41 28 23 30 43 33 48 83 89 94 86 69 66 76 78 79 76 73 74 80 86 87 89 67 52 50 20 31 47 31 43 39 60 86 78 101 87 53 34 53 45 4 358 357 335 328 324 315
79 67 47 46 70 59 64 58 67 78 63 24 14 39 40 34 16 15 14 27 39 61 73 79 81 69 68 75 81 91 94 96 91 78 84 94 105 95 92 76 51 43 41 43 48 45 57 64 59 52 41 56 108 50 52 38 0 352 327 328 317 313 311
63 60 60 50 64 61 62 51 53 68 55 10 39 47 36 39 21 6 4 16 35 54 61 55 71 71 58 65 69 81 88 87 97 99 97 84 86 102 110 102 87 47 29 31 34 40 49 54 51 49 51 40 39 49 101 217 263 336 323 320 314 311 319